This is the latest recevied weather packets stored in our database for station/object W3BRL. If no packets are shown the sender has not sent any weather packets the latest 10 day(s).
| Time | Temp. | Humidity | Pressure | Rain* | Wind** | Luminosity | Snow |
|---|---|---|---|---|---|---|---|
| 1777547243 | 8.33° C | 91% | 1007.3 hPa | 0 mm | - | 61 W/m² | - |
| 1777546940 | 8.33° C | 92% | 1007.4 hPa | 0 mm | - | 40 W/m² | - |
| 1777546637 | 8.33° C | 92% | 1007.2 hPa | 0 mm | - | 36 W/m² | - |
| 1777546333 | 8.33° C | 92% | 1007.4 hPa | 0 mm | - | 26 W/m² | - |
| 1777546031 | 8.33° C | 92% | 1007.6 hPa | 0 mm | - | 21 W/m² | - |
| 1777545727 | 8.33° C | 92% | 1007.6 hPa | 0 mm | - | 13 W/m² | - |
| 1777545424 | 8.33° C | 93% | 1007.5 hPa | 0 mm | - | 6 W/m² | - |
| 1777545121 | 8.33° C | 93% | 1007.5 hPa | 0 mm | - | 5 W/m² | - |
| 1777544818 | 8.33° C | 93% | 1007.4 hPa | 0 mm | - | 4 W/m² | - |
| 1777544514 | 8.33° C | 93% | 1007.6 hPa | 0 mm | - | 2 W/m² | - |
| 1777544210 | 8.33° C | 93% | 1007.6 hPa | 0 mm | - | 1 W/m² | - |
| 1777543908 | 7.78° C | 93% | 1007.6 hPa | 0 mm | - | 1 W/m² | - |
| 1777543604 | 7.78° C | 94% | 1007.6 hPa | 0 mm | - | 0 W/m² | - |
| 1777543300 | 7.78° C | 94% | 1007.7 hPa | 0 mm | - | 0 W/m² | - |
| 1777542996 | 7.78° C | 94% | 1007.6 hPa | 0 mm | - | 0 W/m² | - |
| 1777542692 | 7.78° C | 94% | 1007.8 hPa | 0 mm | - | 0 W/m² | - |
| 1777542390 | 7.78° C | 94% | 1007.5 hPa | 0 mm | - | 0 W/m² | - |
| 1777542086 | 7.78° C | 94% | 1007.6 hPa | 0 mm | - | 0 W/m² | - |
| 1777541783 | 7.78° C | 94% | 1007.5 hPa | 0 mm | - | 0 W/m² | - |
| 1777541480 | 7.78° C | 94% | 1007.7 hPa | 0 mm | - | 0 W/m² | - |
| 1777541176 | 7.78° C | 94% | 1007.8 hPa | 0 mm | - | 0 W/m² | - |
| 1777540873 | 7.78° C | 93% | 1007.6 hPa | 0 mm | - | 0 W/m² | - |
| 1777540571 | 7.78° C | 93% | 1007.7 hPa | 0 mm | - | 0 W/m² | - |
| 1777540267 | 7.78° C | 93% | 1007.7 hPa | 0 mm | - | 0 W/m² | - |
| 1777539962 | 7.78° C | 93% | 1007.9 hPa | 0 mm | - | 0 W/m² | - |
* Rain latest hour (hover to see other rain measurements)
** Current wind speed in m/s (hover to see current wind gust speed)